User: anonymous   Login
Location: Raleigh
(35.7720°N, 78.6390°W)
Time: 23:40:41
(UTC-04:00)
Language:

JAS-2 - Orbit

View from above orbital plane
View from above orbital plane
View from above satellite
View from above satellite

Ground track
Ground track

The orbit data is extracted from the following two-line orbital elements,

1 24278U 96046B   14298.82604348  .00000058  00000-0  97219-4 0  5022
2 24278 098.5164 294.6608 0349649 318.7966 160.2538 13.53033392898336
Epoch (UTC): 25 October 2014 19:49:30
Eccentricity: 0.0349649
inclination: 98.5164°
perigee height: 801 km
apogee height: 1321 km
right ascension of ascending node: 294.6608°
argument of perigee: 318.7966°
revolutions per day: 13.53033392
mean anomaly at epoch: 160.2538°
orbit number at epoch: 89833

The dashed part of the orbit path shows where the satellite is in the earth's shadow,  

DLR